Lyndonville, VT

7:30 AM EDT on July 28, 2017 (GMT -0400)
Lyndonville

Weather History for KCDA - November, 2012

Change the Weather History Date:

Tuesday, November 20, 2012

  Actual Average (K1V4) Record (K1V4)
Temperature  
Mean Temperature 34 °F -  
Max Temperature 48 °F 39 °F 68 °F (1991)
Min Temperature 20 °F 24 °F 4 °F (1894)
Degree Days  
Heating Degree Days 31    
Moisture  
Dew Point 24 °F    
Average Humidity 67    
Maximum Humidity 90    
Minimum Humidity 37    
Precipitation  
Precipitation 0.00 in - - ()
Sea Level Pressure  
Sea Level Pressure 30.18 in    
Wind  
Wind Speed 1 mph (West)    
Max Wind Speed 5 mph    
Max Gust Speed -    
Visibility 10 miles    
Events      
Averages and records for this station are not official NWS values.
T = Trace of Precipitation, MM = Missing Value Source: NWS Daily Summary

Daily Weather History Graph

Daily Weather History Graph

Search for Another Location

Airport or City:

Trip Planner

Search our weather history database for the weather conditions in past years. The results will help you decide how hot, cold, wet, or windy it might be!

Date:

Astronomy

Nov. 20, 2012 Rise Set
Actual Time 6:51 AM EST 4:15 PM EST
Civil Twilight 6:19 AM EST 4:47 PM EST
Nautical Twilight 5:44 AM EST 5:23 PM EST
Astronomical Twilight 5:09 AM EST 5:57 PM EST
Moon 12:16 PM EST (11/20) 11:54 PM EST (11/20)
Length of Visible Light 10h 27m
Length of Day
9h 23m
Waxing Crescent, 51% of the Moon is Illuminated
Nov 20
Waxing Crescent
Nov 28
Full
Dec 6
Last Quarter
Dec 13
New
Dec 20
First Quarter

Hourly Weather History & Observations

Time (EST) Temp. Windchill Dew Point Humidity Pressure Visibility Wind Dir Wind Speed Gust Speed Precip Events Conditions
12:15 AM 25.5 °F - 21.4 °F 84% 30.27 in 10.0 mi Calm Calm - N/A   Clear
12:35 AM 24.8 °F - 21.2 °F 86% 30.26 in 10.0 mi Calm Calm - N/A   Clear
12:55 AM 24.4 °F - 20.8 °F 86% 30.25 in 10.0 mi Calm Calm - N/A   Clear
1:15 AM 24.1 °F - 21.2 °F 89% 30.25 in 10.0 mi Calm Calm - N/A   Clear
1:35 AM 24.1 °F 19.7 °F 20.5 °F 86% 30.25 in 10.0 mi WNW 3.5 mph - N/A   Clear
1:55 AM 24.6 °F - 21.0 °F 86% 30.25 in 10.0 mi Calm Calm - N/A   Clear
2:15 AM 23.0 °F - 20.1 °F 89% 30.25 in 10.0 mi Calm Calm - N/A   Clear
2:35 AM 23.0 °F - 20.3 °F 89% 30.25 in 10.0 mi Calm Calm - N/A   Clear
3:15 AM 22.1 °F - 19.0 °F 88% 30.24 in 10.0 mi Calm Calm - N/A   Clear
3:35 AM 22.5 °F - 19.6 °F 89% 30.23 in 10.0 mi Calm Calm - N/A   Clear
7:15 AM 20.7 °F - 18.1 °F 90% 30.21 in 10.0 mi Calm Calm - N/A   Clear
7:35 AM 22.3 °F - 19.6 °F 89% 30.22 in 10.0 mi Calm Calm - N/A   Clear
7:55 AM 24.3 °F - 21.0 °F 87% 30.22 in 10.0 mi Calm Calm - N/A   Clear
8:15 AM 24.8 °F - 21.6 °F 87% 30.22 in 10.0 mi Calm Calm - N/A   Clear
8:35 AM 25.3 °F - 21.6 °F 86% 30.22 in 7.0 mi Calm Calm - N/A   Clear
8:55 AM 26.4 °F - 21.9 °F 83% 30.22 in 10.0 mi Calm Calm - N/A   Clear
9:15 AM 28.6 °F - 23.5 °F 81% 30.22 in 10.0 mi Calm Calm - N/A   Clear
9:35 AM 30.4 °F - 24.8 °F 80% 30.22 in 10.0 mi Calm Calm - N/A   Clear
9:55 AM 32.2 °F - 26.2 °F 79% 30.21 in 10.0 mi Calm Calm - N/A   Clear
10:15 AM 32.9 °F - 25.7 °F 75% 30.21 in 10.0 mi Calm Calm - N/A   Clear
10:35 AM 34.7 °F - 25.5 °F 69% 30.20 in 10.0 mi Calm Calm - N/A   Clear
10:55 AM 36.0 °F - 23.9 °F 62% 30.19 in 10.0 mi Calm Calm - N/A   Clear
11:15 AM 38.7 °F - 24.4 °F 57% 30.18 in 10.0 mi Calm Calm - N/A   Clear
11:35 AM 41.0 °F - 24.3 °F 51% 30.17 in 10.0 mi Calm Calm - N/A   Clear
11:55 AM 42.6 °F - 24.6 °F 49% 30.16 in 10.0 mi Calm Calm - N/A   Clear
12:15 PM 44.2 °F - 24.8 °F 46% 30.16 in 5.0 mi Calm Calm - N/A   Haze
12:35 PM 45.0 °F - 24.6 °F 45% 30.16 in 4.0 mi Calm Calm - N/A   Haze
12:55 PM 45.5 °F - 24.4 °F 44% 30.15 in 10.0 mi Calm Calm - N/A   Clear
1:15 PM 46.6 °F - 24.4 °F 42% 30.15 in 10.0 mi SE 3.5 mph - N/A   Clear
1:35 PM 47.1 °F - 24.1 °F 40% 30.13 in 10.0 mi Calm Calm - N/A   Clear
1:55 PM 48.4 °F - 24.1 °F 39% 30.13 in 10.0 mi Calm Calm - N/A   Clear
2:15 PM 47.7 °F - 23.2 °F 38% 30.12 in 10.0 mi Calm Calm - N/A   Clear
2:35 PM 48.4 °F - 22.8 °F 37% 30.13 in 10.0 mi Calm Calm - N/A   Clear
2:55 PM 47.5 °F - 23.5 °F 39% 30.13 in 10.0 mi Calm Calm - N/A   Clear
3:15 PM 44.8 °F 42.4 °F 24.6 °F 45% 30.13 in 10.0 mi West 4.6 mph - N/A   Clear
3:35 PM 43.9 °F 42.3 °F 24.6 °F 47% 30.13 in 10.0 mi WSW 3.5 mph - N/A   Clear
3:55 PM 42.4 °F 40.7 °F 24.8 °F 50% 30.13 in 10.0 mi West 3.5 mph - N/A   Clear
4:15 PM 41.2 °F 38.2 °F 24.8 °F 52% 30.14 in 10.0 mi WSW 4.6 mph - N/A   Clear
4:35 PM 41.0 °F 39.0 °F 25.2 °F 53% 30.14 in 10.0 mi West 3.5 mph - N/A   Clear
4:55 PM 39.6 °F 37.4 °F 24.6 °F 55% 30.14 in 10.0 mi WNW 3.5 mph - N/A   Clear
5:15 PM 38.8 °F 35.4 °F 24.4 °F 56% 30.15 in 10.0 mi WNW 4.6 mph - N/A   Clear
5:35 PM 38.7 °F 35.2 °F 24.8 °F 58% 30.15 in 10.0 mi WNW 4.6 mph - N/A   Clear
5:55 PM 38.5 °F 36.1 °F 24.8 °F 58% 30.16 in 10.0 mi WNW 3.5 mph - N/A   Clear
6:15 PM 39.0 °F - 24.4 °F 56% 30.16 in 10.0 mi Calm Calm - N/A   Clear
6:35 PM 37.8 °F - 24.4 °F 59% 30.17 in 10.0 mi Calm Calm - N/A   Clear
6:55 PM 36.5 °F - 24.8 °F 63% 30.18 in 10.0 mi Calm Calm - N/A   Scattered Clouds
7:15 PM 36.5 °F - 24.8 °F 63% 30.18 in 10.0 mi Calm Calm - N/A   Mostly Cloudy
7:35 PM 35.8 °F - 25.2 °F 65% 30.18 in 10.0 mi Calm Calm - N/A   Mostly Cloudy
7:55 PM 33.4 °F - 24.8 °F 71% 30.17 in 10.0 mi Calm Calm - N/A   Mostly Cloudy
8:15 PM 33.3 °F - 24.8 °F 71% 30.16 in 10.0 mi Calm Calm - N/A   Overcast
8:35 PM 35.1 °F - 24.8 °F 66% 30.17 in 10.0 mi Calm Calm - N/A   Scattered Clouds
8:55 PM 34.5 °F - 25.0 °F 68% 30.17 in 10.0 mi Calm Calm - N/A   Mostly Cloudy
9:15 PM 34.2 °F - 25.0 °F 69% 30.18 in 10.0 mi Calm Calm - N/A   Overcast
9:35 PM 33.8 °F 30.8 °F 24.8 °F 70% 30.18 in 10.0 mi SW 3.5 mph - N/A   Mostly Cloudy
9:55 PM 32.0 °F - 24.8 °F 75% 30.18 in 10.0 mi Calm Calm - N/A   Mostly Cloudy
10:15 PM 32.9 °F - 24.8 °F 72% 30.18 in 10.0 mi Calm Calm - N/A   Overcast
10:35 PM 32.2 °F - 25.2 °F 75% 30.18 in 10.0 mi Calm Calm - N/A   Mostly Cloudy
10:55 PM 33.3 °F - 24.6 °F 71% 30.17 in 10.0 mi Calm Calm - N/A   Overcast
11:15 PM 32.2 °F - 25.7 °F 77% 30.17 in 10.0 mi Calm Calm - N/A   Overcast
11:35 PM 32.5 °F - 24.8 °F 73% 30.18 in 10.0 mi Calm Calm - N/A   Overcast
11:55 PM 32.4 °F - 25.3 °F 75% 30.18 in 10.0 mi Calm Calm - N/A   Overcast